STARLINK-32432, 61257

Orbit data source: Space-Track

STARLINK-32432, 61257 is a payload satellite owned by SpaceX/Seattle (US) in LEO that was launched on Wed, 25 Sep 2024 UTC via an FALCON 9 launch vehicle from the Air Force Western Test Range (AFWTR). Payloads include a variety of satellites, spacecraft, and rockets equipped with specific instruments for various scientific and technological missions. These include communications satellites like Starlink; space stations such as the ISS; scientific satellites like the Hubble; Earth observation satellites from companies like Planet Labs, Umbra, and HawkEye 360; GPS; miniature CubeSats for education and research; and military/defense satellites.

Loading next visibility...
STARLINK-32432 details
Identifier
61257, 2024-175Q
Orbit
LEO
Last TLE update21 hours ago
Origin
Flag of USSpaceX/Seattle (US)
ManufacturerSpaceX/Seattle
MissionOperational spacecraft
Bus & MotorSTARLINK V2M, Unknown motor
Mass730 kg wet, ~700 kg dry
Launch date (UTC)
2024-09-25 (3 months ago)
Launch vehicle
FALCON 9
Launch site
Air Force Western Test Range (AFWTR)
Object type
Payload
Rocket body
Debris
Shape & HBRUnknown
Radar Cross SectionLarge (>1 m²)

Expand to show TLE details & history

TLE from 21 hours ago
0 STARLINK-32432
1 61257U 24175Q   24355.61261305  .00002257  00000-0  66439-4 0  9991
2 61257  53.1594  99.5575 0001459  80.0036 280.1133 15.39603258 13426
Epoch: 2024-12-20T14:42Z
Definitive object data (Epoch: 2024-12-20T14:42:09.767Z)
Latitude-0.00006°
Longitude149.34114°
Altitude448.01 km
Speed7.645 km/s
True Right ascension06h 38m 13s
True Declination0° 00' 00"
Sunlit
Object was in full shadow at TLE epoch
Visualization TLE readout
Latitude-52.7963°
Longitude44.08458°
Altitude466.604 km
Speed7.632 km/s
Apparent Right ascension23h 21m 05s
Apparent Declination-46° 27' 42"
Sunlit
Object is in daylight
Visualization observer readout
Local Sidereal Time11:07:27
Azimuth199.64° SSW
Elevation-83°
Doppler factor1
Orbital elements
Apogee altitude448.535 km
Perigee altitude446.543 km
Semi-major axis6,825.676 km
Eccentricity0.0001459
Inclination53.1594°
RAAN99.5575°
Arg. of periapsis80.0036°
True anomaly280.09684°
Mean anomaly280.1133°
Eccentric anomaly280.10507°
Mean motion3.84879 °/min
BSTAR0.000066439
Orbital period93.54 mins
Loading maneuver chart data...
Loading historical data...
Loading historical data...
Loading historical data...
Loading historical data...
Loading historical data...
Loading historical data...
Loading historical data...

STARLINK-32432 Visibility forecast

Observer location: undefined°, undefined

Span
Click to sort rows by Start time (UTC) header in descending order
Start Az.
Max El. time (UTC)
Max El. Az.
Max El.
End time (UTC)
End Az.
5 mins2024-12-21 16:07:42.719Z333.795° NNW2024-12-21 16:09:42.719Z50.619° ENE34.99°2024-12-21 16:12:42.719Z109.417° ESE
5 mins2024-12-22 08:56:42.719Z189.642° SSW2024-12-22 08:58:42.719Z126.119° SE31.36°2024-12-22 09:01:42.719Z65.204° ENE
4 mins2024-12-22 10:34:42.719Z296.891° NW2024-12-22 10:35:42.719Z324.671° NNW24.267°2024-12-22 10:38:42.719Z28.895° NE
|